TimeAKDT,TemperatureF,Dew PointF,Humidity,Sea Level PressureIn,VisibilityMPH,Wind Direction,Wind SpeedMPH,Gust SpeedMPH,PrecipitationIn,Events,Conditions,WindDirDegrees,DateUTC
12:53 AM,46.9,37.9,71,29.79,10.0,WSW,9.2,-,N/A,,Clear,240,2013-10-05 08:53:00
1:53 AM,45.0,37.0,74,29.79,10.0,WSW,6.9,-,N/A,,Clear,240,2013-10-05 09:53:00
2:53 AM,44.1,37.0,76,29.81,10.0,WSW,5.8,-,N/A,,Clear,240,2013-10-05 10:53:00
3:53 AM,45.0,37.0,74,29.81,10.0,SW,8.1,-,N/A,,Clear,230,2013-10-05 11:53:00
4:53 AM,46.0,37.0,71,29.81,10.0,SW,11.5,-,N/A,,Clear,230,2013-10-05 12:53:00
5:53 AM,43.0,37.9,82,29.79,10.0,ESE,5.8,-,N/A,,Clear,120,2013-10-05 13:53:00
6:53 AM,37.0,32.0,82,29.79,10.0,Calm,Calm,-,N/A,,Clear,0,2013-10-05 14:53:00
7:53 AM,36.0,32.0,86,29.79,10.0,Calm,Calm,-,N/A,,Partly Cloudy,0,2013-10-05 15:53:00
8:53 AM,37.0,34.0,89,29.79,10.0,Calm,Calm,-,N/A,,Partly Cloudy,0,2013-10-05 16:53:00
9:53 AM,39.9,36.0,86,29.80,10.0,East,3.5,-,N/A,,Clear,80,2013-10-05 17:53:00
10:53 AM,45.0,39.0,80,29.80,10.0,Calm,Calm,-,N/A,,Scattered Clouds,0,2013-10-05 18:53:00
11:53 AM,46.0,39.0,76,29.80,10.0,Calm,Calm,-,N/A,,Mostly Cloudy,0,2013-10-05 19:53:00
12:53 PM,48.0,39.0,71,29.80,10.0,Calm,Calm,-,N/A,,Mostly Cloudy,0,2013-10-05 20:53:00
1:53 PM,48.0,39.0,71,29.79,10.0,SSE,3.5,-,N/A,,Mostly Cloudy,150,2013-10-05 21:53:00
2:53 PM,48.0,37.9,68,29.77,10.0,East,3.5,-,N/A,,Mostly Cloudy,100,2013-10-05 22:53:00
3:53 PM,48.9,37.9,66,29.75,10.0,West,3.5,-,N/A,,Mostly Cloudy,280,2013-10-05 23:53:00
4:53 PM,48.9,39.0,69,29.73,10.0,West,6.9,-,N/A,,Mostly Cloudy,260,2013-10-06 00:53:00
5:53 PM,48.9,37.9,66,29.71,10.0,Calm,Calm,-,N/A,,Mostly Cloudy,0,2013-10-06 01:53:00
6:53 PM,46.9,39.9,77,29.71,10.0,West,3.5,-,N/A,,Mostly Cloudy,280,2013-10-06 02:53:00
7:53 PM,46.9,37.0,68,29.71,10.0,Calm,Calm,-,N/A,,Scattered Clouds,0,2013-10-06 03:53:00
8:53 PM,48.9,33.1,54,29.71,10.0,SSE,8.1,-,N/A,,Overcast,160,2013-10-06 04:53:00
9:53 PM,48.9,34.0,56,29.71,10.0,SSE,9.2,18.4,N/A,,Overcast,150,2013-10-06 05:53:00
10:53 PM,48.0,34.0,58,29.71,10.0,Variable,6.9,-,N/A,,Overcast,0,2013-10-06 06:53:00
11:53 PM,48.0,35.1,61,29.71,10.0,Variable,4.6,-,N/A,,Overcast,0,2013-10-06 07:53:00